Time,TemperatureF,DewpointF,PressureIn,WindDirection,WindDirectionDegrees,WindSpeedMPH,WindSpeedGustMPH,Humidity,HourlyPrecipIn,Conditions,Clouds,dailyrainin,SolarRadiationWatts/m^2,SoftwareType,DateUTC
2013-03-06 00:00:00,26.0,23.0,-100.00,NNE,22,5.0,-999.0,87,-99.99,,,-99.99,0.000000,,2013-03-06 06:00:00,
2013-03-06 00:32:00,26.0,23.0,-100.00,NNE,22,5.0,-999.0,87,-99.99,,,-99.99,0.000000,,2013-03-06 06:32:00,
2013-03-06 00:42:00,26.0,23.0,-100.00,NNE,22,5.0,-999.0,87,-99.99,,,-99.99,0.000000,,2013-03-06 06:42:00,
2013-03-06 00:52:00,26.0,23.0,-100.00,NNE,22,5.0,-999.0,87,-99.99,,,-99.99,0.000000,,2013-03-06 06:52:00,
2013-03-06 01:00:00,27.0,24.0,-100.00,NNE,22,5.0,-999.0,85,-99.99,,,-99.99,0.000000,,2013-03-06 07:00:00,
2013-03-06 01:42:00,27.0,24.0,-100.00,NNE,22,5.0,-999.0,85,-99.99,,,-99.99,0.000000,,2013-03-06 07:42:00,
2013-03-06 01:52:00,27.0,24.0,-100.00,NNE,22,5.0,-999.0,85,-99.99,,,-99.99,0.000000,,2013-03-06 07:52:00,
2013-03-06 02:00:00,27.0,24.0,-100.00,North,0,5.0,-999.0,86,-99.99,,,-99.99,0.000000,,2013-03-06 08:00:00,
2013-03-06 02:42:00,27.0,24.0,-100.00,North,0,5.0,-999.0,86,-99.99,,,-99.99,0.000000,,2013-03-06 08:42:00,
2013-03-06 02:52:00,27.0,24.0,-100.00,North,0,5.0,-999.0,86,-99.99,,,-99.99,0.000000,,2013-03-06 08:52:00,
2013-03-06 03:00:00,28.0,24.0,-100.00,North,0,7.0,-999.0,85,-99.99,,,-99.99,0.000000,,2013-03-06 09:00:00,
2013-03-06 03:42:00,28.0,24.0,-100.00,North,0,7.0,-999.0,85,-99.99,,,-99.99,0.000000,,2013-03-06 09:42:00,
2013-03-06 03:52:00,28.0,24.0,-100.00,North,0,7.0,-999.0,85,-99.99,,,-99.99,0.000000,,2013-03-06 09:52:00,
2013-03-06 04:00:00,28.0,25.0,-100.00,North,0,6.0,-999.0,87,-99.99,,,-99.99,0.000000,,2013-03-06 10:00:00,
2013-03-06 04:42:00,28.0,25.0,-100.00,North,0,6.0,-999.0,87,-99.99,,,-99.99,0.000000,,2013-03-06 10:42:00,
2013-03-06 04:52:00,28.0,25.0,-100.00,North,0,6.0,-999.0,87,-99.99,,,-99.99,0.000000,,2013-03-06 10:52:00,
2013-03-06 05:00:00,29.0,25.0,-100.00,North,0,7.0,-999.0,84,-99.99,,,-99.99,0.000000,,2013-03-06 11:00:00,
2013-03-06 05:42:00,29.0,25.0,-100.00,North,0,7.0,-999.0,84,-99.99,,,-99.99,0.000000,,2013-03-06 11:42:00,
2013-03-06 05:52:00,29.0,25.0,-100.00,North,0,7.0,-999.0,84,-99.99,,,-99.99,0.000000,,2013-03-06 11:52:00,
2013-03-06 06:00:00,28.0,26.0,-100.00,North,0,6.0,-999.0,91,-99.99,,,-99.99,0.000000,,2013-03-06 12:00:00,
2013-03-06 06:43:00,28.0,26.0,-100.00,North,0,6.0,-999.0,91,-99.99,,,-99.99,0.000000,,2013-03-06 12:43:00,
2013-03-06 06:52:00,28.0,26.0,-100.00,North,0,6.0,-999.0,91,-99.99,,,-99.99,0.000000,,2013-03-06 12:52:00,
2013-03-06 07:00:00,29.0,26.0,-100.00,NNE,22,4.0,-999.0,90,-99.99,,,-99.99,12.760000,,2013-03-06 13:00:00,
2013-03-06 07:42:00,29.0,26.0,-100.00,NNE,22,4.0,-999.0,90,-99.99,,,-99.99,12.760000,,2013-03-06 13:42:00,
2013-03-06 07:52:00,29.0,26.0,-100.00,NNE,22,4.0,-999.0,90,-99.99,,,-99.99,12.760000,,2013-03-06 13:52:00,
2013-03-06 08:00:00,29.0,26.0,-100.00,North,0,5.0,-999.0,87,-99.99,,,-99.99,76.559998,,2013-03-06 14:00:00,
2013-03-06 08:42:00,29.0,26.0,-100.00,North,0,5.0,-999.0,87,-99.99,,,-99.99,76.559998,,2013-03-06 14:42:00,
2013-03-06 08:52:00,29.0,26.0,-100.00,North,0,5.0,-999.0,87,-99.99,,,-99.99,76.559998,,2013-03-06 14:52:00,
2013-03-06 09:00:00,29.0,27.0,-100.00,NNW,337,8.0,-999.0,92,-99.99,,,-99.99,124.120003,,2013-03-06 15:00:00,
2013-03-06 09:42:00,29.0,27.0,-100.00,NNW,337,8.0,-999.0,92,-99.99,,,-99.99,124.120003,,2013-03-06 15:42:00,
2013-03-06 09:52:00,29.0,27.0,-100.00,NNW,337,8.0,-999.0,92,-99.99,,,-99.99,124.120003,,2013-03-06 15:52:00,
2013-03-06 10:00:00,31.0,27.0,-100.00,North,0,7.0,-999.0,86,-99.99,,,-99.99,213.440002,,2013-03-06 16:00:00,
2013-03-06 10:42:00,31.0,27.0,-100.00,North,0,7.0,-999.0,86,-99.99,,,-99.99,213.440002,,2013-03-06 16:42:00,
2013-03-06 10:52:00,31.0,27.0,-100.00,North,0,7.0,-999.0,86,-99.99,,,-99.99,213.440002,,2013-03-06 16:52:00,
2013-03-06 11:00:00,32.0,27.0,-100.00,North,0,7.0,-999.0,83,-99.99,,,-99.99,290.000000,,2013-03-06 17:00:00,
2013-03-06 11:42:00,32.0,27.0,-100.00,North,0,7.0,-999.0,83,-99.99,,,-99.99,290.000000,,2013-03-06 17:42:00,
2013-03-06 11:53:00,32.0,27.0,-100.00,North,0,7.0,-999.0,83,-99.99,,,-99.99,290.000000,,2013-03-06 17:53:00,
2013-03-06 12:00:00,31.0,27.0,-100.00,North,0,9.0,-999.0,84,-99.99,,,-99.99,299.279999,,2013-03-06 18:00:00,
2013-03-06 12:42:00,31.0,27.0,-100.00,North,0,9.0,-999.0,84,-99.99,,,-99.99,299.279999,,2013-03-06 18:42:00,
2013-03-06 12:53:00,31.0,27.0,-100.00,North,0,9.0,-999.0,84,-99.99,,,-99.99,299.279999,,2013-03-06 18:53:00,
2013-03-06 13:00:00,30.0,29.0,-100.00,NNW,337,12.0,-999.0,93,-99.99,,,-99.99,314.359985,,2013-03-06 19:00:00,
2013-03-06 13:43:00,30.0,29.0,-100.00,NNW,337,12.0,-999.0,93,-99.99,,,-99.99,314.359985,,2013-03-06 19:43:00,
2013-03-06 13:53:00,30.0,29.0,-100.00,NNW,337,12.0,-999.0,93,-99.99,,,-99.99,314.359985,,2013-03-06 19:53:00,
2013-03-06 14:00:00,30.0,28.0,-100.00,North,0,9.0,-999.0,90,-99.99,,,-99.99,276.079987,,2013-03-06 20:00:00,
2013-03-06 14:43:00,30.0,28.0,-100.00,North,0,9.0,-999.0,90,-99.99,,,-99.99,276.079987,,2013-03-06 20:43:00,
2013-03-06 14:53:00,30.0,28.0,-100.00,North,0,9.0,-999.0,90,-99.99,,,-99.99,276.079987,,2013-03-06 20:53:00,
2013-03-06 15:00:00,30.0,26.0,-100.00,North,0,8.0,-999.0,85,-99.99,,,-99.99,278.399994,,2013-03-06 21:00:00,
2013-03-06 15:42:00,30.0,26.0,-100.00,North,0,8.0,-999.0,85,-99.99,,,-99.99,278.399994,,2013-03-06 21:42:00,
2013-03-06 15:52:00,30.0,26.0,-100.00,North,0,8.0,-999.0,85,-99.99,,,-99.99,278.399994,,2013-03-06 21:52:00,
2013-03-06 16:00:00,30.0,26.0,-100.00,North,0,7.0,-999.0,86,-99.99,,,-99.99,169.360001,,2013-03-06 22:00:00,
2013-03-06 16:42:00,30.0,26.0,-100.00,North,0,7.0,-999.0,86,-99.99,,,-99.99,169.360001,,2013-03-06 22:42:00,
2013-03-06 16:52:00,30.0,26.0,-100.00,North,0,7.0,-999.0,86,-99.99,,,-99.99,169.360001,,2013-03-06 22:52:00,
2013-03-06 17:00:00,29.0,26.0,-100.00,North,0,5.0,-999.0,90,-99.99,,,-99.99,71.919998,,2013-03-06 23:00:00,
2013-03-06 17:42:00,29.0,26.0,-100.00,North,0,5.0,-999.0,90,-99.99,,,-99.99,71.919998,,2013-03-06 23:42:00,
2013-03-06 17:52:00,29.0,26.0,-100.00,North,0,5.0,-999.0,90,-99.99,,,-99.99,71.919998,,2013-03-06 23:52:00,
2013-03-06 18:00:00,28.0,25.0,-100.00,North,0,5.0,-999.0,90,-99.99,,,-99.99,11.600000,,2013-03-07 00:00:00,
2013-03-06 18:32:00,28.0,25.0,-100.00,North,0,5.0,-999.0,90,-99.99,,,-99.99,11.600000,,2013-03-07 00:32:00,
2013-03-06 18:42:00,28.0,25.0,-100.00,North,0,5.0,-999.0,90,-99.99,,,-99.99,11.600000,,2013-03-07 00:42:00,
2013-03-06 18:52:00,28.0,25.0,-100.00,North,0,5.0,-999.0,90,-99.99,,,-99.99,11.600000,,2013-03-07 00:52:00,
2013-03-06 19:00:00,27.0,25.0,-100.00,NNE,22,4.0,-999.0,89,-99.99,,,-99.99,0.000000,,2013-03-07 01:00:00,
2013-03-06 19:42:00,27.0,25.0,-100.00,NNE,22,4.0,-999.0,89,-99.99,,,-99.99,0.000000,,2013-03-07 01:42:00,
2013-03-06 19:52:00,27.0,25.0,-100.00,NNE,22,4.0,-999.0,89,-99.99,,,-99.99,0.000000,,2013-03-07 01:52:00,
2013-03-06 20:00:00,27.0,25.0,-100.00,NNE,22,3.0,-999.0,92,-99.99,,,-99.99,0.000000,,2013-03-07 02:00:00,
2013-03-06 21:00:00,26.0,24.0,-100.00,North,0,6.0,-999.0,91,-99.99,,,-99.99,0.000000,,2013-03-07 03:00:00,
2013-03-06 21:42:00,26.0,24.0,-100.00,North,0,6.0,-999.0,91,-99.99,,,-99.99,0.000000,,2013-03-07 03:42:00,
2013-03-06 21:52:00,26.0,24.0,-100.00,North,0,6.0,-999.0,91,-99.99,,,-99.99,0.000000,,2013-03-07 03:52:00,
2013-03-06 22:00:00,26.0,23.0,-100.00,North,0,7.0,-999.0,90,-99.99,,,-99.99,0.000000,,2013-03-07 04:00:00,
2013-03-06 22:42:00,26.0,23.0,-100.00,North,0,7.0,-999.0,90,-99.99,,,-99.99,0.000000,,2013-03-07 04:42:00,
2013-03-06 22:52:00,26.0,23.0,-100.00,North,0,7.0,-999.0,90,-99.99,,,-99.99,0.000000,,2013-03-07 04:52:00,
2013-03-06 23:00:00,25.0,23.0,-100.00,North,0,6.0,-999.0,94,-99.99,,,-99.99,0.000000,,2013-03-07 05:00:00,
2013-03-06 23:32:00,25.0,23.0,-100.00,North,0,6.0,-999.0,94,-99.99,,,-99.99,0.000000,,2013-03-07 05:32:00,
2013-03-06 23:42:00,25.0,23.0,-100.00,North,0,6.0,-999.0,94,-99.99,,,-99.99,0.000000,,2013-03-07 05:42:00,
2013-03-06 23:52:00,25.0,23.0,-100.00,North,0,6.0,-999.0,94,-99.99,,,-99.99,0.000000,,2013-03-07 05:52:00,